Location: Unspecified
(0.0000°N, 0.0000°E)
Time: 00:47:15
(UTC+00:00)

STARLINK-1054 - Pass Details

Date: 19 January 2020
Orbit: 546 x 548 km, 53.1° (Epoch: 15 January)

Event Time Altitude Azimuth Distance (km) Brightness Sun altitude
Rises 05:10:27 0° 192° (SSW) 2,709 7.3 -14.0°
Reaches altitude 10° 05:13:03 10° 177° (S) 1,813 6.6 -13.4°
Maximum altitude 05:16:18 22° 124° (SE) 1,204 6.4 -12.7°
Drops below altitude 10° 05:19:32 10° 72° (ENE) 1,805 7.0 -11.9°
Sets 05:22:07 0° 57° (ENE) 2,694 7.7 -11.3°
